Observations

BIA Manual Entry


Date Temp Humidity Rainfall Dew Point Wind Direction Wind Speed Wind Pressure Condition Visibility
2025-05-13 07:01:41 26 88 0.0 24 220 5.7 1010 Partly Cloudy (Day) 20 km
2025-05-13 06:01:11 26 88 0.0 24 220 3.8 1009 Partly Cloudy (Night) 10 km
2025-05-13 04:59:55 26 92 0.0 24 210 3.8 1009 Partly Cloudy (Night) 10 km
2025-05-13 04:00:54 26 92 0.0 24 240 3.8 1008 Partly Cloudy (Night) 10 km
2025-05-13 03:00:06 26 89 0.0 24 200 5.7 1008 Partly Cloudy (Night) 10 km
2025-05-13 01:59:21 26 92 0.00 24 180 1.9 1009 Partly Cloudy (Night) 10KM
2025-05-13 01:01:20 25 93 0.00 24 160 5.7 1009 Partly Cloudy (Night) 10KM
2025-05-12 23:59:44 26 92 0.00 24 150 3.8 1010 Partly Cloudy (Night) 10KM
2025-05-12 23:00:53 25 91 0.00 24 160 5.7 1010 Showers 10KM
2025-05-12 22:01:25 25 90 0.00 24 170 7.6 1010 Showers 10KM
2025-05-12 20:58:02 25 89 23 190 11.4 1010 Showers 10KM
2025-05-12 20:05:13 25 87 23 120 9.5 1009 Night Thunderstorm 10KM
2025-05-12 19:04:49 29 82 25 140 9.5 1008 Lightning 10KM
2025-05-12 18:01:46 31 67 25 190 20.9 1007 Thunderstorm 10KM
2025-05-12 16:59:47 31 63 23 300 15.2 1006 Distant showers 15 KM
2025-05-12 15:59:08 32 56 23 310 19.0 1006 Distant showers 15 KM
2025-05-12 15:03:15 33 58 24 280 17.1 1006 Distant showers 15
2025-05-12 14:00:23 33 54 23 320 19.0 1007 Partly Cloudy (Day) 20 KM
2025-05-12 12:58:40 33 56 0.0 23 260 9.5 1008 Partly Cloudy (Day) 20 km
2025-05-12 12:02:15 33 55 0.0 22 250 7.6 1009 Partly Cloudy (Day) 20 km
2025-05-12 11:02:15 32 58 0.0 23 240 7.6 1009 Partly Cloudy (Day) 20 km
2025-05-12 10:01:48 3124 66 0.0 24 220 7.6 1009 Partly Cloudy (Day) 20 KM
2025-05-12 09:00:34 29 73 0.0 24 160 7.6 1009 Partly Cloudy (Day) 20 KM
2025-05-12 08:04:31 28 80 0 25 190 5.7 1009 Cloudy 20 KM
2025-05-12 07:02:21 27 88 0 25 190 7.6 1008 Cloudy 15 KM